Tracking 21473 objects as of 19-Sep-2020
HD Live streaming from Space Station
objects crossing your sky now

SL-8 DEB

Track SL-8 DEB now!
10-day predictions


NORAD ID: 16867
Int'l Code: 1986-052E
Perigee: 640.6 km
Apogee: 662.0 km
Inclination: 74.0 °
Period: 97.6 minutes
Semi major axis: 7022 km
RCS: 0.0117 m2 (small)
Launch date: July 16, 1986
Source: Commonwealth of Independent States (former USSR) (CIS)
Launch site: PLESETSK MISSILE AND SPACE COMPLEX (PKMTR)

Note: This is SATELLITE DEBRIS
aabbcc
Your satellite tracking list
Your tracking list is empty




NASA's NSSDC Master Catalog

Two Line Element Set (TLE):
1 16867U 86052E   20262.51592925 +.00000329 +00000-0 +53429-4 0  9990
2 16867 074.0212 076.5129 0015273 147.5419 212.6697 14.75317258817265
Source of the keplerian elements: AFSPC